Flag for Algeria Weather past 2 weeks in Constantine, Algeria

Now
50 °F

Partly sunny.


Feels Like: 45 °F
Forecast: 45 / 55 °F
Wind: 14 mph from Northwest

Location: Constantine Airport

Current Time: Mar 27, 2015 at 1:30:43 PM

Latest Report: Mar 27, 2015 at 12:30 PM


Visibility: 5 mi

Pressure: 30.12 "Hg

Humidity: 76%

Dew point: 43 °F

Location of ConstantineLocation

Historic Weather in Constantine — Graph

°F

Constantine temperature yesterday

Maximum temperature yesterday: 46 °F (at 12:30 AM)
Minimum temperature yesterday: 41 °F (at 11:00 PM)
Average temperature yesterday: 44 °F

Past Weeks' High & Low Weather Summary

 TemperatureHumidityPressure
High79 °F (Mar 19, 3:30 PM)100% (Mar 24, 2:00 PM)30.15 "Hg (Mar 24, 2:00 PM)
Low37 °F (Mar 14, 5:30 AM)27% (Mar 23, 4:30 PM)29.45 "Hg (Mar 24, 4:00 PM)
Average52 °F70%29.91 "Hg
* Reported Mar 12 12:00 Noon — Mar 27 12:30 PM, Constantine, Weather by CustomWeather, © 2015

Note: Actual official high and low records may vary slightly from our data, if they occured in-between our weather recording intervals... More about our weather records

Advertising

Constantine weather history for previous 24 hours

 ConditionsComfort  
Time TempWeatherWind HumidityBarometerVisibility
12:30 PM
Fri, Mar 27
50 °FPartly sunny.14 mph76%30.12 "Hg5 mi
12:00 PM50 °FPartly sunny.15 mph76%30.12 "Hg5 mi
11:30 AM48 °FPartly sunny.14 mph82%30.12 "Hg5 mi
11:00 AM48 °FPartly sunny.12 mph71%30.12 "Hg5 mi
10:30 AM50 °FPartly sunny.14 mph71%30.09 "Hg5 mi
10:00 AM46 °FPartly sunny.12 mph76%30.09 "Hg5 mi
9:30 AM46 °FPartly sunny.13 mph71%30.09 "HgN/A
9:00 AM48 °FPartly sunny.14 mph71%30.09 "HgN/A
8:30 AM45 °FScattered clouds.9 mph76%30.07 "HgN/A
8:00 AM43 °FScattered clouds.8 mph87%30.07 "Hg5 mi
7:30 AM41 °FScattered clouds.14 mph87%30.04 "Hg5 mi
7:00 AM41 °FScattered clouds.12 mph87%30.04 "Hg5 mi
6:30 AM41 °FScattered clouds.12 mph81%30.04 "Hg5 mi
6:00 AM41 °FPassing clouds.10 mph87%30.04 "Hg5 mi
5:30 AM41 °FPartly cloudy.9 mph87%30.01 "Hg5 mi
5:00 AM41 °FPartly cloudy.7 mph87%30.01 "Hg5 mi
4:00 AM41 °FPartly cloudy.9 mph81%29.98 "Hg5 mi
3:30 AM41 °FPartly cloudy.7 mph76%29.98 "Hg5 mi
2:30 AM41 °FPartly cloudy.7 mph76%30.01 "Hg5 mi
2:00 AM41 °FPartly cloudy.7 mph76%30.01 "Hg5 mi
1:30 AM41 °FPartly cloudy.5 mph81%30.01 "Hg5 mi
1:00 AM41 °FPartly cloudy.No wind87%30.01 "Hg5 mi
12:30 AM39 °FPartly cloudy.5 mph87%30.01 "Hg5 mi
12:00 AM41 °FPartly cloudy.9 mph87%30.01 "Hg5 mi
11:30 PM
Thu, Mar 26
41 °FPartly cloudy.12 mph87%29.98 "Hg5 mi
11:00 PM41 °FPartly cloudy.13 mph87%29.98 "Hg5 mi
10:00 PM43 °FPartly cloudy.16 mph87%29.98 "Hg5 mi
9:30 PM43 °FPartly cloudy.13 mph87%29.98 "Hg5 mi
9:00 PM43 °FLight rain. Partly cloudy.14 mph87%29.98 "Hg5 mi
8:30 PM43 °FPartly cloudy.10 mph87%29.95 "Hg5 mi
8:00 PM43 °FLight rain. Partly cloudy.10 mph87%29.95 "Hg5 mi
7:30 PM43 °FPartly cloudy.9 mph87%29.95 "Hg5 mi
7:00 PM43 °FPartly cloudy.14 mph87%29.95 "Hg5 mi
6:30 PM43 °FBroken clouds.12 mph87%29.92 "Hg5 mi
6:00 PM43 °FBroken clouds.14 mph87%29.92 "Hg5 mi
5:30 PM45 °FBroken clouds.14 mph76%29.89 "Hg5 mi
5:00 PM45 °FBroken clouds.14 mph76%29.89 "Hg5 mi
4:30 PM45 °FBroken clouds.14 mph76%29.89 "Hg5 mi
4:00 PM45 °FBroken clouds.16 mph76%29.89 "Hg5 mi
3:30 PM45 °FBroken clouds.23 mph81%29.86 "Hg5 mi
3:00 PM43 °FLight rain. Broken clouds.23 mph87%29.86 "Hg5 mi
2:30 PM45 °FBroken clouds.23 mph87%29.86 "Hg5 mi
2:00 PM46 °FBroken clouds.16 mph82%29.86 "Hg5 mi
1:30 PM45 °FLight rain. Broken clouds.14 mph81%29.86 "Hg4 mi
1:00 PM46 °FBroken clouds.21 mph82%29.83 "Hg5 mi
Weather by CustomWeather, © 2015

See weather overviewHow to use our weather pages